Regional Weather Roundup
Issued by NWS Goodland, KS

Home | Current Version | Previous Version | Graphics & Text | Print | Product List | Glossary On
Versions: 1 2 3 4 5 6 7 8 9 10 11 12 13 14 15 16 17 18 19 20 21 22 23 24 25 26 27 28 29 30 31 32 33 34 35 36 37 38 39 40 41 42 43 44 45 46 47 48 49 50
000
ASUS43 KGLD 040108
RWRGLD

GOODLAND FORECAST AREA HOURLY WEATHER ROUNDUP
NATIONAL WEATHER SERVICE GOODLAND KS
700 PM MDT FRI JUL 03 2015

...OFFICIAL OBSERVATIONS...

CITY           SKY/WX    TMP DP  RH WIND       PRES   REMARKS
GOODLAND KS    MOSUNNY   83  53  35 E9        30.00S
HILL CITY KS   SUNNY     82  57  42 E10       29.97R HAZE
IMPERIAL NEB   SUNNY     82  57  42 E9        29.99S
MCCOOK NEB     SUNNY     80  62  54 E13       29.97S
AKRON CO       PTSUNNY   79  60  52 E3        30.05S
BURLINGTON CO  SUNNY     81  55  40 E10       30.03S
LIMON CO       SUNNY     78  55  44 SE7       30.08S
$$

...UNOFFICIAL OBSERVATIONS...

CITY           SKY/WX    TMP DP  RH WIND       PRES   REMARKS
COLBY KS       SUNNY     81  63  54 E12       30.01R
GOVE KS          N/A     80  32  17 MISG        N/A
NORTON KS      SUNNY     77  54  44 E6        29.98R
SHARON SPRINGS   N/A     85  60  42 S7G20       N/A
YUMA CO          N/A     82  59  45 E7          N/A
$$



USA.gov is the U.S. government's official web portal to all federal, state and local government web resources and services.